{"data":{"norad_id":46063,"epoch":"2026-05-25T02:26:49.831296Z","epoch_age_seconds":65950,"freshness":"FRESH","line1":"1 46063U 20055AN  26145.10196564  .00000337  00000+0  22614-4 0  9992","line2":"2 46063  53.1599 118.4854 0001300  95.8511 264.2638 15.31692745320770","mean_motion":15.31692745,"eccentricity":0.00013,"inclination_deg":53.1599,"raan_deg":118.4854,"arg_perigee_deg":95.8511,"mean_anomaly_deg":264.2638,"bstar":2.2614e-5,"rev_number":32077,"period_min":94.013633262982,"perigee_km":469.87126526762,"apogee_km":471.65197890936,"semimajor_km":6848.8986220885,"source":"CELESTRAK","updated_at":"2026-05-25T13:38:16.463210Z"}}